Taurus 1
1 44530U 19059C   25016.80825613  .00009697  00000-0  19370-2 0  9990
2 44530  98.5901 149.9208 0010034 121.0803 239.1383 14.62085175282905
Duchifat 3
1 44854U 19089C   25016.79650715  .00035373  00000-0  11348-2 0  9996
2 44854  36.9479 179.0226 0009784  76.5151 283.6690 15.31394529280786
TO-108
1 44881U 19093C   25016.86832148  .00001803  00000-0  21731-3 0  9990
2 44881  97.8087  95.4818 0013691 348.8222  11.2687 14.84999552274745
FloripaSat 1
1 44885U 19093G   25016.78710205  .00008775  00000-0  79608-3 0  9995
2 44885  97.8263 104.3519 0010450 332.3026  27.7637 14.95510138275236
RS-44
1 44909U 19096E   25016.85785776  .00000014  00000-0  19991-4 0  9996
2 44909  82.5243 322.7877 0216321 271.6995  85.9342 12.79737760236340
UPMSat 2
1 46276U 20061E   25016.43953979  .00039877  00000-0  71327-3 0  9994
2 46276  97.2676  87.9692 0001753  84.6963 275.4488 15.49895740243017
AmicalSat
1 46287U 20061R   25010.85863821  .11283921  24654-5  56408-3 0  9994
2 46287  97.2840  89.8720 0009935 281.1985  78.8199 16.41970930241877
SALSAT
1 46495U 20068K   25016.41803222  .00010649  00000-0  51006-3 0  9995
2 46495  97.8446 348.3167 0010763 307.7252  52.3005 15.19087360236616
CubeSX-Sirius-HSE
1 47951U 21022V   25016.91159428  .00070274  00000-0  13432-2 0  9991
2 47951  97.4377 283.2880 0012287  89.6541 270.6117 15.47773993211350
CubeSX-HSE
1 47952U 21022W   25016.83444018  .00067564  00000-0  12799-2 0  9998
2 47952  97.4375 283.3710 0012235  89.5541 270.7112 15.48044458211358
KSU-Cubesat
1 47954U 21022Y   25016.69497819  .00122840  00000-0  14231-2 0  9993
2 47954  97.4369 286.5624 0011187  83.1490 277.1039 15.61342569211268
GRBAlpha
1 47959U 21022AD  25016.79399696  .00058214  00000-0  11077-2 0  9991
2 47959  97.4378 283.4948 0012053  89.4468 270.8163 15.47958610210176
Orbicraft-Zorkiy
1 47960U 21022AE  25016.83573333  .00102034  00000-0  14497-2 0  9999
2 47960  97.4375 286.1969 0011409  84.6267 275.6289 15.55977902211016
TUBIN
1 48900U 21059X   25016.76583120  .00032907  00000-0  69155-3 0  9994
2 48900  97.6634 176.1485 0005368  46.8453 313.3243 15.45257278197723
LEDSAT
1 49069U 21073D   25016.45895658  .00040814  00000-0  97320-3 0  9996
2 49069  97.4100  94.0824 0013084 242.4022 117.5897 15.41367196189100
CUTE
1 49263U 21088D   25016.62167451  .00044598  00000-0  11804-2 0  9995
2 49263  97.4699  89.3573 0010275  50.2581 309.9568 15.38194364182220
TeikyoSat 4
1 49396U 21102B   25016.54572541  .00003068  00000-0  21142-3 0  9994
2 49396  97.4312  60.1003 0011324 267.3589  92.6343 15.06518571174851
Z-Sat
1 49399U 21102E   25016.88248973  .00006745  00000-0  39206-3 0  9998
2 49399  97.4021  62.7257 0017508 239.7789 120.1709 15.12275602175244
KOSEN 1
1 49402U 21102H   25016.58366103  .00008626  00000-0  43825-3 0  9998
2 49402  97.3942  64.8725 0015836 217.8847 142.1273 15.17008410175434
HO-113
1 50466U 21131B   25016.85462825  .00001085  00000-0  35539-3 0  9995
2 50466  98.5173 106.9359 0003948 193.7158 166.3923 14.40453478160756
IRIS-A
1 51044U 22002BN  25016.45638621  .00062762  00000-0  99986-3 0  9996
2 51044  97.3520  90.6309 0003964 356.7911   3.3316 15.53044858167253
Foresail-1
1 52766U 22057AL  25016.80412269  .00063637  00000-0  10150-2 0  9992
2 52766  97.5972 156.5142 0005605  81.7798 278.4089 15.52999826147340
SNUGLITE 2
1 52899U 22065F   25016.85245061  .00002370  00000-0  47725-3 0  9993
2 52899  98.1448 160.4944 0007259 196.6253 163.4712 14.62442954135477
IO-117
1 53106U 22080B   25013.55270770 -.00000003  00000-0  00000+0 0  9994
2 53106  70.1424 119.4379 0008206  58.9554 301.1910  6.42557525 58785
FO-118
1 54684U 22167C   25016.88320610  .00190745  00000-0  16803-2 0  9993
2 54684  97.6118 177.6237 0002162  65.3836 294.7650 15.68141368117270
SO-120
1 56992U 23084BU  25016.60463587  .00288493  00000-0  18624-2 0  9998
2 56992  97.5313 149.6417 0008340 312.1232  47.9322 15.75253592 89112
UmKA 1 (RS40S)
1 57172U 23091G   25016.86301112  .00008303  00000-0  47890-3 0  9998
2 57172  97.5816  73.0932 0016740 108.4598 251.8454 15.12500923 85737
CubeBel-2 (EU11S)
1 57175U 23091K   25016.86891855  .00012371  00000-0  66398-3 0  9993
2 57175  97.5818  73.5343 0014625 117.5701 242.7018 15.14991191 85761
VERONIKA
1 58261U 23174F   25016.76306933  .00049062  00000-0  11979-2 0  9990
2 58261  97.4346  97.8762 0008024 204.0667 156.0205 15.40663439 66355
KAFASAT
1 58317U 23174BP  25016.82696995  .00121002  00000-0  18006-2 0  9992
2 58317  97.4249 100.5117 0005522 180.9881 179.1363 15.54701076 66553
ENSO
1 58470U 23185J   25016.86437608  .00039985  00000-0  10330-2 0  9992
2 58470  97.3964  89.1191 0008519 237.1118 122.9308 15.38981470 62817
EIRSAT-1
1 58472U 23185L   25016.88582185  .00050528  00000-0  11732-2 0  9990
2 58472  97.3959  89.6614 0007905 236.8262 123.2228 15.42176307 62851
SONATE-2
1 59112U 24043Q   25016.30571549  .00018527  00000-0  67114-3 0  9994
2 59112  97.4961 145.5442 0011653 267.4615  92.5290 15.28370635 48243
MO-122
1 60209U 24125G   25016.80490410  .00020216  00000-0  72338-3 0  9998
2 60209  97.2950 230.5889 0021015 294.5155  65.3894 15.28604716 29934
GRBBeta
1 60237U 24128C   25016.56869240  .00005402  00000-0  43788-3 0  9993
2 60237  61.9909 220.8782 0035803  23.6214 336.6510 15.00404708 28575
Curium One
1 60242U 24128H   25016.57745378  .00008659  00000-0  67377-3 0  9992
2 60242  61.9810 220.7033 0035652  17.4397 342.7909 15.01406445 28587
ROBUSTA-3A
1 60243U 24128J   25016.27557990  .00007008  00000-0  55357-3 0  9993
2 60243  61.9876 222.1567 0033807  15.0694 345.1395 15.01103547 28530
CatSat
1 60246U 24125J   25016.52439274  .00015008  00000-0  56925-3 0  9996
2 60246  97.2744 230.8479 0045060 245.7050 113.9479 15.25988340 27989
AO-123
1 61781U 24199AY  25016.85903438  .00011287  00000-0  45436-3 0  9996
2 61781  97.3761 246.5226 0017171 352.3445   7.7528 15.24904994 54957
POEM 4 (BGS ARPIT)
1 62461U 24253C   25016.62841595  .00080704  00000-0  54066-3 0  9992
2 62461  55.2211 174.4434 0005533 322.5956  37.4705 15.74620480  2658
